Location: Banios
(43.0451°N, 0.2335°E)
Time: 13:51:19
(UTC+00:00)

Cosmos 1072 Rocket - Pass Details

Date: 25 January 2021
Orbit: 949 x 1008 km, 82.9° (Epoch: 25 February)

Event Time Altitude Azimuth Distance (km) Brightness Sun altitude
Rises 05:05:52 0° 199° (SSW) 3,640 7.4 -24.6°
Reaches altitude 10° 05:08:24 10° 203° (SSW) 2,705 6.6 -24.1°
Maximum altitude 05:14:29 57° 282° (WNW) 1,145 4.5 -23.0°
Drops below altitude 10° 05:20:43 10° 0° (N) 2,763 6.8 -21.9°
Sets 05:23:20 0° 5° (N) 3,724 7.5 -21.4°
